Track COSMOS 2413 (GLONASS) now! COSMOS 2413 (GLONASS) is classified as:
1 28508U 04053A 25181.99248153 -.00000051 00000-0 00000-0 0 9990 2 28508 63.9792 72.6450 0006347 217.1858 321.6254 2.13103614159646